User: anonymous   Login
Location: Meriden
(44.0740°N, 93.3870°W)
Time: 08:13:29
(UTC-05:00)
Language:

AO-27 - Orbit

View from above orbital plane
View from above orbital plane
View from above satellite
View from above satellite

Ground track
Ground track

The orbit data is extracted from the following two-line orbital elements,

1 22825U 93061C   15187.45809428  .00000073  00000-0  45762-4 0  9998
2 22825 098.7096 137.5737 0007278 250.3506 221.0834 14.29889973135692
Epoch (UTC): 06 July 2015 10:59:39
Eccentricity: 0.0007278
inclination: 98.7096°
perigee height: 787 km
apogee height: 797 km
right ascension of ascending node: 137.5737°
argument of perigee: 250.3506°
revolutions per day: 14.29889973
mean anomaly at epoch: 221.0834°
orbit number at epoch: 13569

The dashed part of the orbit path shows where the satellite is in the earth's shadow,  

DLR